User: anonymous   Login
Location: Deep South Regional Star Gaze
(30.9929°N, 90.9586°W)
Time: 05:39:37
(UTC-05:00)
Language:

H-2A R/B - Orbit

View from above orbital plane
View from above orbital plane
View from above satellite
View from above satellite

Ground track
Ground track

The orbit data is extracted from the following two-line orbital elements,

1 26899U 01038B   15211.53539294  .00001585  00000-0  57652-3 0  9993
2 26899 028.3919 343.9227 7132553 093.8490 357.9010 02.45939793119521
Epoch (UTC): 30 July 2015 12:50:57
Eccentricity: 0.7132553
inclination: 28.3919°
perigee height: 269 km
apogee height: 33341 km
right ascension of ascending node: 343.9227°
argument of perigee: 93.8490°
revolutions per day: 2.45939793
mean anomaly at epoch: 357.9010°
orbit number at epoch: 11952

The dashed part of the orbit path shows where the satellite is in the earth's shadow,  

DLR